TITAN 3C TRANSTAGE DEB, 21692

Orbit data source: Space-Track

TITAN 3C TRANSTAGE DEB, 21692 is space debris in HEO originally from a launch on Tue, 21 Dec 1965 UTC launched from the Air Force Eastern Test Range (AFETR). Debris objects in space refer to the collection of defunct objects orbiting the Earth. Examples of debris include non-operational satellites, rocket bodies, and fragments generated from explosions, collisions, or faulty payload assembly.

Loading next visibility...
TITAN 3C TRANSTAGE DEB details
Identifier
21692, 1965-108AF
Orbit
HEO
Last TLE update2 months ago
Origin
Flag of USUSAF SSD (US)
ManufacturerUnknown
MissionSpacecraft
Bus & MotorUnknown
MassUnknown
Launch date (UTC)
1965-12-21 (59 years ago)
Launch vehicleUnknown
Launch site
Air Force Eastern Test Range (AFETR)
Object type
Payload
Rocket body
Debris
Shape & HBRUnknown
Radar Cross SectionMedium (>0.1 m² and <1 m²)

Expand to show TLE details & history

TLE from 2 months ago
0 TITAN 3C TRANSTAGE DEB
1 21692U 65108AF  24283.31226575  .00002836  00000-0  11667-1 0  9991
2 21692  27.7102 182.6698 6183349 253.2535 312.6685  3.55998904142426
Epoch: 2024-10-09T07:29Z
Definitive object data (Epoch: 2024-10-09T07:29:39.76Z)
Latitude20.5086°
Longitude-173.37241°
Altitude10,258.632 km
Speed5.091 km/s
True Right ascension21h 09m 49s
True Declination20° 27' 37"
Sunlit
Object was in daylight at TLE epoch
Visualization TLE readout
Latitude27.53723°
Longitude103.94183°
Altitude12,051.87 km
Speed4.609 km/s
Apparent Right ascension15h 51m 07s
Apparent Declination11° 50' 15"
Sunlit
Object is in daylight
Visualization observer readout
Local Sidereal Time04:31:29
Azimuth12.467° NNE
Elevation-37.404°
Doppler factor1
Orbital elements
Apogee altitude22,947.841 km
Perigee altitude538.047 km
Semi-major axis18,121.081 km
Eccentricity0.6183349
Inclination27.7102°
RAAN182.6698°
Arg. of periapsis253.2535°
True anomaly237.99216°
Mean anomaly312.6685°
Eccentric anomaly277.54745°
Mean motion0.88975 °/min
BSTAR0.011667
Orbital period404.61 mins
Loading maneuver chart data...

TITAN 3C TRANSTAGE DEB Visibility forecast

Observer location: undefined°, undefined

Span
Click to sort rows by Start time (UTC) header in descending order
Start Az.
Max El. time (UTC)
Max El. Az.
Max El.
End time (UTC)
End Az.
80 mins2024-12-22 11:20:53.535Z177.904° S2024-12-22 11:31:53.535Z121.821° SE25.801°2024-12-22 12:40:53.535Z77.746° E
323 mins2024-12-22 18:27:53.535Z271.767° WNW2024-12-22 19:59:53.535Z229.267° WSW40.348°2024-12-22 23:50:53.535Z177.199° S
|